When you browse on this site, cookies collect data to enhance your experience and personalize the content and advertising you see.
Visit our Privacy Policy to learn more. By continuing to use the site, you agree to this use of cookies and data.
  • In Denmark
  • List of Countries
  • For 7 days
  • Water Temperature
  • Satellite Maps
  • Weather Map
  • Weather Widgets
  • user-avatar
    Login

    Hourly Weather Witkowek

    Today, 23 July, Tuesday

    Time Temperature Precipitation Wind Pressure Humidity
    00:00 +19°C° 0 mm 1 mps 750 mmHg 88%
    01:00 +19°C° 0 mm 1 mps 750 mmHg 89%
    02:00 +19°C° 0 mm 1 mps 749 mmHg 88%
    03:00 +19°C° 0 mm 1 mps 749 mmHg 87%
    04:00 +18°C° 0 mm 2 mps 749 mmHg 86%
    05:00 +19°C° 0 mm 2 mps 749 mmHg 82%
    06:00 +20°C° 0 mm 3 mps 749 mmHg 79%
    07:00 +21°C° 0 mm 4 mps 749 mmHg 76%
    08:00 +22°C° 0 mm 4 mps 749 mmHg 71%
    09:00 +23°C° 0 mm 4 mps 749 mmHg 67%
    10:00 +26°C° 0 mm 4 mps 749 mmHg 63%
    11:00 +27°C° 0 mm 4 mps 749 mmHg 60%
    12:00 +28°C° 0 mm 4 mps 749 mmHg 57%
    13:00 +29°C° 0 mm 4 mps 749 mmHg 54%
    14:00 +29°C° 0 mm 4 mps 748 mmHg 53%
    15:00 +29°C° 0 mm 4 mps 748 mmHg 53%
    16:00 +29°C° 0 mm 3 mps 748 mmHg 53%
    17:00 +28°C° 0 mm 3 mps 748 mmHg 57%
    18:00 +27°C° 0 mm 2 mps 748 mmHg 62%
    19:00 +26°C° 0 mm 2 mps 748 mmHg 67%
    20:00 +24°C° 0 mm 1 mps 748 mmHg 72%
    21:00 +23°C° 0 mm 1 mps 748 mmHg 77%
    22:00 +19°C° 0 mm 0 mps 748 mmHg 82%
    23:00 +19°C° 0 mm 0 mps 748 mmHg 84%

    Tomorrow, 24 July, Wednesday

    Time Temperature Precipitation Wind Pressure Humidity
    00:00 +18°C° 0 mm 0 mps 748 mmHg 86%
    01:00 +18°C° 0 mm 0 mps 748 mmHg 88%
    02:00 +20°C° 0 mm 1 mps 748 mmHg 89%
    03:00 +19°C° 0 mm 1 mps 748 mmHg 90%
    04:00 +19°C° 0 mm 1 mps 747 mmHg 92%
    05:00 +18°C° 0 mm 0 mps 747 mmHg 87%
    06:00 +20°C° 0 mm 0 mps 748 mmHg 82%
    07:00 +21°C° 0 mm 0 mps 748 mmHg 77%
    08:00 +23°C° 0 mm 0 mps 748 mmHg 69%
    09:00 +26°C° 0 mm 1 mps 748 mmHg 61%
    10:00 +28°C° 0 mm 1 mps 748 mmHg 53%
    11:00 +29°C° 0 mm 1 mps 748 mmHg 50%
    12:00 +30°C° 0 mm 1 mps 747 mmHg 46%
    13:00 +31°C° 0 mm 1 mps 747 mmHg 42%
    14:00 +31°C° 0 mm 1 mps 747 mmHg 41%
    15:00 +31°C° 0 mm 1 mps 747 mmHg 41%
    16:00 +31°C° 0 mm 1 mps 747 mmHg 40%
    17:00 +30°C° 0 mm 2 mps 747 mmHg 48%
    18:00 +28°C° 0 mm 2 mps 747 mmHg 56%
    19:00 +26°C° 0 mm 2 mps 746 mmHg 63%
    20:00 +25°C° 0 mm 2 mps 747 mmHg 68%
    21:00 +24°C° 0 mm 2 mps 747 mmHg 73%
    22:00 +22°C° 0 mm 1 mps 747 mmHg 78%
    23:00 +22°C° 0 mm 1 mps 747 mmHg 80%

    Day after tomorrow, 25 July, Thursday

    Time Temperature Precipitation Wind Pressure Humidity
    00:00 +21°C° 0 mm 1 mps 747 mmHg 82%
    01:00 +21°C° 0 mm 1 mps 747 mmHg 84%
    02:00 +21°C° 0 mm 1 mps 747 mmHg 84%
    03:00 +20°C° 0 mm 1 mps 747 mmHg 85%
    04:00 +20°C° 0 mm 1 mps 747 mmHg 86%
    05:00 +21°C° 0 mm 1 mps 747 mmHg 81%
    06:00 +23°C° 0 mm 1 mps 747 mmHg 76%
    07:00 +24°C° 0 mm 1 mps 747 mmHg 71%
    08:00 +26°C° 0 mm 1 mps 747 mmHg 65%
    09:00 +28°C° 0 mm 1 mps 748 mmHg 59%
    10:00 +29°C° 0 mm 1 mps 748 mmHg 52%
    11:00 +30°C° 0 mm 1 mps 747 mmHg 49%
    12:00 +31°C° 0 mm 1 mps 747 mmHg 45%
    13:00 +32°C° 0 mm 1 mps 747 mmHg 41%
    14:00 +32°C° 0 mm 1 mps 747 mmHg 40%
    15:00 +32°C° 0 mm 1 mps 746 mmHg 39%
    16:00 +32°C° 0 mm 2 mps 746 mmHg 39%
    17:00 +30°C° 0 mm 2 mps 746 mmHg 45%
    18:00 +29°C° 0 mm 2 mps 746 mmHg 52%
    19:00 +28°C° 0 mm 2 mps 746 mmHg 58%
    20:00 +26°C° 0 mm 2 mps 746 mmHg 63%
    21:00 +24°C° 0 mm 2 mps 746 mmHg 67%
    22:00 +23°C° 0 mm 2 mps 746 mmHg 72%
    23:00 +21°C° 0 mm 2 mps 746 mmHg 75%

    26 July, Friday

    Time Temperature Precipitation Wind Pressure Humidity
    00:00 +22°C° 0 mm 1 mps 746 mmHg 77%
    01:00 +21°C° 0 mm 1 mps 746 mmHg 80%
    02:00 +21°C° 0 mm 1 mps 746 mmHg 83%
    03:00 +20°C° 0 mm 1 mps 746 mmHg 86%
    04:00 +18°C° 0 mm 2 mps 745 mmHg 89%
    05:00 +19°C° 0 mm 2 mps 745 mmHg 82%
    06:00 +20°C° 0 mm 2 mps 746 mmHg 76%
    07:00 +21°C° 0 mm 3 mps 746 mmHg 70%
    08:00 +22°C° 0 mm 3 mps 746 mmHg 62%
    09:00 +25°C° 0 mm 3 mps 746 mmHg 55%
    10:00 +26°C° 0 mm 4 mps 746 mmHg 48%
    11:00 +26°C° 0 mm 4 mps 745 mmHg 47%
    12:00 +27°C° 0 mm 3 mps 745 mmHg 47%
    13:00 +28°C° 0 mm 3 mps 745 mmHg 46%
    14:00 +28°C° 0 mm 3 mps 744 mmHg 46%
    15:00 +28°C° 0 mm 3 mps 744 mmHg 46%
    16:00 +28°C° 0 mm 3 mps 744 mmHg 45%
    17:00 +26°C° 0 mm 3 mps 744 mmHg 51%
    18:00 +25°C° 0 mm 3 mps 744 mmHg 56%
    19:00 +24°C° 0 mm 3 mps 743 mmHg 62%
    20:00 +22°C° 0 mm 3 mps 744 mmHg 66%
    21:00 +21°C° 0 mm 3 mps 744 mmHg 69%
    22:00 +19°C° 0 mm 2 mps 744 mmHg 73%
    23:00 +18°C° 0 mm 2 mps 744 mmHg 75%

    27 July, Saturday

    Time Temperature Precipitation Wind Pressure Humidity
    00:00 +18°C° 0 mm 2 mps 744 mmHg 78%
    01:00 +17°C° 0 mm 2 mps 744 mmHg 81%
    02:00 +18°C° 0 mm 1 mps 743 mmHg 85%
    03:00 +16°C° 0 mm 1 mps 743 mmHg 88%
    04:00 +16°C° 0 mm 1 mps 743 mmHg 92%
    05:00 +17°C° 0 mm 2 mps 743 mmHg 88%
    06:00 +19°C° 0 mm 2 mps 743 mmHg 84%
    07:00 +20°C° 0 mm 2 mps 743 mmHg 81%
    08:00 +21°C° 0.1 mm 3 mps 743 mmHg 75%
    09:00 +24°C° 0.1 mm 3 mps 743 mmHg 69%
    10:00 +25°C° 0.1 mm 3 mps 743 mmHg 64%
    11:00 +26°C° 0.2 mm 4 mps 743 mmHg 61%
    12:00 +27°C° 0.2 mm 4 mps 742 mmHg 59%
    13:00 +27°C° 0.2 mm 4 mps 742 mmHg 56%
    14:00 +27°C° 0.2 mm 4 mps 742 mmHg 55%
    15:00 +27°C° 0.2 mm 5 mps 742 mmHg 55%
    16:00 +27°C° 0.2 mm 5 mps 741 mmHg 54%
    17:00 +26°C° 0 mm 4 mps 741 mmHg 58%
    18:00 +25°C° 0 mm 4 mps 741 mmHg 62%
    19:00 +24°C° 0 mm 3 mps 741 mmHg 66%
    20:00 +22°C° 0 mm 3 mps 741 mmHg 69%
    21:00 +21°C° 0 mm 3 mps 742 mmHg 73%
    22:00 +20°C° 0 mm 3 mps 742 mmHg 76%
    23:00 +19°C° 0 mm 3 mps 742 mmHg 79%

    28 July, Sunday

    Time Temperature Precipitation Wind Pressure Humidity
    00:00 +18°C° 0 mm 2 mps 742 mmHg 83%
    01:00 +18°C° 0 mm 2 mps 742 mmHg 87%
    02:00 +17°C° 0 mm 2 mps 741 mmHg 89%
    03:00 +17°C° 0 mm 2 mps 741 mmHg 91%
    04:00 +16°C° 0 mm 2 mps 741 mmHg 94%
    05:00 +18°C° 0 mm 2 mps 741 mmHg 89%
    06:00 +19°C° 0 mm 3 mps 741 mmHg 84%
    07:00 +20°C° 0 mm 3 mps 741 mmHg 79%
    08:00 +22°C° 0 mm 4 mps 741 mmHg 71%
    09:00 +25°C° 0 mm 4 mps 741 mmHg 64%
    10:00 +26°C° 0 mm 4 mps 742 mmHg 56%
    11:00 +27°C° 0 mm 4 mps 741 mmHg 52%
    12:00 +28°C° 0 mm 4 mps 741 mmHg 48%
    13:00 +30°C° 0 mm 4 mps 741 mmHg 44%
    14:00 +29°C° 0.1 mm 4 mps 740 mmHg 47%
    15:00 +28°C° 0.1 mm 5 mps 740 mmHg 51%
    16:00 +28°C° 0.1 mm 5 mps 740 mmHg 55%
    17:00 +27°C° 0.5 mm 4 mps 740 mmHg 61%
    18:00 +25°C° 0.5 mm 4 mps 740 mmHg 68%
    19:00 +24°C° 0.5 mm 3 mps 740 mmHg 74%
    20:00 +23°C° 0.2 mm 2 mps 740 mmHg 79%
    21:00 +21°C° 0.2 mm 2 mps 740 mmHg 83%
    22:00 +20°C° 0.2 mm 2 mps 740 mmHg 87%
    23:00 +21°C° 0 mm 1 mps 741 mmHg 88%
    Show more